Wind_Speed
43 41 39 38 37 37 39 40 39 38 36 35 34 34 33 31 30 28 27 28 28 28 29 29 30 31 31 31 30 29 28 26 26 29 28 24 23 21 19 22 26 27 28 30 30 27 25 23 21 17 13 12 10 9 10 11 12 13 13 14 14 14 13 11 11 12 13 13 13 13 13 13 12 13 14 14 14 14 14 13 13 13 14 16 17
44 42 40 38 38 39 40 40 39 39 37 36 35 36 35 34 32 29 28 29 30 31 31 31 30 32 33 31 31 31 30 27 27 28 26 25 24 20 19 22 26 27 27 29 31 29 27 26 24 20 16 13 10 9 9 10 12 13 14 15 16 15 14 13 12 12 14 15 15 16 16 16 16 15 15 16 17 17 17 17 16 16 16 17 18
43 43 42 41 40 41 42 41 41 40 39 37 37 37 36 34 32 30 30 31 32 32 32 31 31 33 33 32 32 33 30 27 27 27 26 25 23 20 20 23 26 27 27 29 32 31 28 27 26 23 19 15 11 8 8 9 11 14 16 17 18 17 16 15 14 14 15 15 16 17 18 19 18 17 16 17 19 20 20 20 20 19 20 20 21
42 43 43 43 42 42 42 42 41 40 39 37 36 36 35 33 31 30 32 33 33 32 32 32 33 34 34 33 33 32 29 26 26 27 26 24 22 21 22 24 26 27 27 30 33 32 29 28 27 25 21 17 14 11 10 11 13 16 19 20 20 20 19 19 18 18 18 18 18 18 18 19 18 17 17 19 21 22 22 22 21 22 22 23 24
42 43 42 43 43 42 42 42 41 41 39 37 36 34 33 33 32 33 35 35 33 32 33 34 34 35 34 33 32 31 28 26 26 25 25 24 22 23 24 24 25 26 27 31 33 31 29 28 28 26 21 17 15 14 15 16 16 18 21 22 22 22 22 22 22 23 23 23 24 23 22 19 18 17 18 21 23 23 23 23 23 23 24 26 27
44 44 43 43 44 44 43 43 43 42 40 38 36 34 34 35 35 37 38 36 34 34 35 35 34 33 33 32 31 30 28 27 26 25 24 23 24 25 24 23 25 27 29 32 32 30 28 27 28 26 22 18 16 16 16 17 18 20 23 24 24 24 25 26 27 27 28 28 28 28 26 22 20 20 21 22 23 25 25 24 25 25 26 28 29
45 46 45 45 46 45 44 43 43 42 41 40 39 36 36 36 36 37 38 36 35 34 35 33 32 32 32 31 30 30 28 27 26 24 24 24 24 24 22 23 25 27 30 32 31 29 27 27 28 26 23 21 19 18 18 19 21 23 24 25 26 28 29 31 31 32 31 31 30 29 27 25 23 23 24 25 26 27 27 26 26 27 28 30 31
47 48 47 47 46 46 44 42 42 42 41 41 40 38 37 36 35 35 35 35 33 33 33 31 30 30 31 30 30 29 27 27 26 24 25 25 24 22 22 23 26 28 30 32 32 28 26 26 27 26 24 23 21 20 20 22 24 25 26 28 29 31 32 32 33 32 32 31 30 29 27 27 26 26 27 28 28 29 29 28 28 29 31 32 33
49 48 47 46 45 45 44 42 41 41 41 39 37 37 38 36 34 33 33 33 32 31 31 30 30 30 30 30 30 28 28 29 26 26 27 25 23 22 22 24 27 29 31 33 33 28 26 26 27 27 25 24 22 22 22 23 24 25 26 27 29 30 31 31 31 31 31 31 30 29 27 27 27 28 29 30 30 30 30 30 31 32 33 35 36
48 44 40 41 43 44 44 42 41 41 41 38 36 35 34 32 30 31 32 32 31 31 30 30 30 30 30 31 30 28 29 30 27 26 26 24 23 23 23 25 28 31 34 36 33 29 27 27 27 27 26 25 23 23 23 23 24 24 25 26 27 28 28 29 29 30 30 30 29 28 27 28 28 29 30 31 30 30 31 31 33 35 37 39 40
44 39 36 38 42 44 43 42 42 41 39 37 34 32 31 30 30 32 33 33 32 31 31 31 31 31 31 31 30 29 30 29 26 25 25 24 24 24 25 28 31 34 37 36 32 28 27 28 27 26 25 25 24 23 23 23 24 24 25 26 27 27 27 28 29 29 29 29 29 28 29 29 29 30 30 31 31 32 33 34 37 39 41 42 42
41 39 39 41 43 44 43 41 42 41 38 35 33 34 33 32 32 33 32 32 32 32 32 32 31 31 31 31 30 30 30 29 26 25 24 25 26 27 28 31 34 38 39 35 31 29 28 28 27 25 25 25 24 23 23 23 24 25 26 27 27 26 27 28 28 28 28 29 29 29 30 30 31 32 32 33 34 35 37 39 40 41 41 41 39
39 39 41 42 44 44 42 40 40 41 39 36 33 31 30 29 30 33 33 32 33 32 32 31 30 29 29 29 29 30 30 29 27 25 26 27 28 29 32 34 38 40 39 35 31 29 29 28 26 25 25 25 24 23 24 24 25 26 26 25 25 25 26 27 26 26 27 28 29 30 31 32 33 34 35 36 37 39 40 41 41 41 40 38 37
35 36 39 41 42 42 41 40 39 39 40 38 33 29 27 29 32 35 36 36 35 33 32 31 30 29 28 28 29 30 30 30 29 28 29 31 31 32 35 39 41 42 40 36 32 31 30 27 24 24 25 25 24 24 24 25 26 26 25 24 24 25 26 26 26 26 27 28 29 31 32 34 35 36 37 38 39 39 39 39 39 39 38 37 37
38 38 39 41 42 41 41 40 39 38 39 39 37 32 29 31 35 38 39 39 37 35 34 33 32 31 30 30 30 30 31 32 31 31 33 34 34 36 39 43 44 43 40 36 33 30 27 24 23 24 25 26 25 24 25 26 26 25 24 24 25 27 27 27 26 27 28 29 30 32 34 35 36 36 37 37 37 37 37 37 37 37 37 37 37
41 42 43 45 45 44 43 41 39 38 37 38 39 37 34 35 38 41 42 41 40 39 37 36 35 34 33 33 32 32 33 34 35 35 35 36 37 39 43 46 46 43 40 37 33 29 24 23 24 25 26 27 26 25 25 26 25 24 24 25 27 28 28 28 28 29 30 31 33 34 35 35 35 35 36 36 36 36 36 36 36 36 37 37 37
39 41 43 46 48 48 45 43 42 40 38 38 39 40 40 40 41 42 44 44 42 41 40 38 38 37 36 35 35 35 35 36 37 37 38 39 41 44 47 48 45 43 40 36 32 28 26 25 26 27 28 28 27 26 27 26 24 24 25 27 29 29 29 30 31 32 33 34 36 36 35 34 34 34 34 35 35 36 36 36 37 37 37 38 38
39 41 42 44 46 48 47 45 43 41 39 39 40 41 41 41 42 44 46 46 43 41 39 39 39 38 38 38 38 39 39 40 40 40 41 42 44 46 47 45 41 39 37 34 31 29 28 28 28 29 30 29 28 28 27 26 24 25 27 29 30 30 31 32 33 34 35 36 37 37 35 34 33 33 33 34 34 35 35 36 36 37 37 37 37
39 41 43 45 46 46 46 47 45 43 41 41 42 42 41 42 42 45 46 45 42 40 39 40 41 41 41 42 42 42 42 42 42 41 42 43 46 47 44 40 37 36 34 32 30 28 28 28 29 29 29 28 27 26 26 25 26 27 29 30 31 31 33 34 35 35 36 37 36 35 34 33 33 34 34 34 34 34 35 36 36 37 37 37 37
38 39 42 46 49 49 49 49 48 47 47 47 46 46 46 46 46 46 46 44 43 42 42 42 43 44 44 44 44 43 42 41 41 41 43 46 47 45 41 38 37 35 33 31 29 27 27 28 28 27 26 25 24 25 25 26 27 29 31 31 31 33 34 35 35 35 35 35 34 33 32 33 34 34 34 34 34 34 35 35 36 37 37 38 38
41 41 41 44 49 53 54 53 50 48 49 50 50 49 50 50 50 48 47 46 45 45 44 43 43 43 44 44 45 45 43 43 43 44 47 48 46 43 39 38 37 35 34 32 29 28 28 28 27 25 24 24 24 24 25 27 29 31 31 32 32 33 34 34 34 35 35 34 33 32 32 33 34 34 34 34 34 34 35 36 37 39 40 41 42
44 42 43 44 47 50 53 53 51 49 49 49 49 49 50 50 50 49 48 48 47 47 46 45 43 43 43 45 45 45 44 44 46 48 49 48 45 42 40 38 37 36 35 32 30 28 28 28 27 26 26 25 25 26 27 29 31 32 32 33 33 33 33 32 33 34 34 34 32 31 31 32 33 34 34 35 36 37 39 40 41 43 45 46 47
44 42 43 44 45 47 48 51 51 50 50 49 48 48 48 48 48 47 47 46 46 46 45 43 43 42 42 43 43 44 45 47 49 50 49 47 45 42 40 38 37 36 35 33 30 29 29 29 28 27 26 26 27 29 30 31 32 32 33 33 33 32 31 32 33 34 34 33 30 29 30 32 33 34 36 38 40 42 44 45 47 49 51 52 53
44 42 42 43 44 44 45 48 50 50 50 49 48 47 47 47 46 46 46 45 45 44 44 44 43 43 43 44 45 47 48 50 50 49 48 47 45 42 39 37 36 35 34 32 30 30 30 30 28 27 27 27 28 30 31 32 33 33 33 33 32 31 31 33 34 34 33 31 28 28 31 33 35 36 39 41 44 47 49 51 53 55 56 57 57
43 41 41 41 42 43 45 46 47 49 49 47 46 47 47 46 45 45 45 45 44 44 45 46 46 47 47 47 48 49 49 49 49 48 47 46 44 40 37 35 34 33 32 30 29 29 29 28 28 27 26 27 28 29 31 32 32 32 31 31 31 31 32 34 35 34 32 30 28 30 33 35 37 39 42 45 48 50 52 54 55 57 57 58 58
41 40 37 37 39 40 42 43 44 45 46 45 46 46 46 45 45 44 44 45 45 46 46 47 47 48 48 48 49 49 49 48 47 46 45 43 41 39 37 35 33 32 31 29 27 28 28 26 25 25 25 27 28 30 31 31 30 30 30 31 31 32 34 35 35 33 31 29 30 32 35 37 39 41 44 46 47 49 50 52 53 54 54 55 55
38 36 33 34 37 39 39 40 40 42 43 44 44 44 44 44 44 44 44 44 45 46 47 47 48 48 49 49 49 49 48 47 46 44 41 39 38 37 36 34 32 31 29 28 27 27 25 22 22 25 27 28 28 28 28 28 29 29 30 31 32 33 34 33 32 30 29 30 32 33 35 37 39 41 43 45 46 48 49 50 51 51 52 52 52
34 32 30 32 36 36 36 38 39 40 41 42 42 42 42 43 43 44 44 45 45 46 47 47 48 49 49 50 49 49 47 46 43 39 37 36 36 36 35 32 30 29 28 27 26 23 21 21 24 27 28 28 27 28 28 29 29 30 31 32 33 33 32 30 27 27 28 29 30 32 34 36 39 42 45 47 48 49 50 51 51 51 50 49 48
32 30 29 30 32 32 33 36 38 38 40 41 41 41 41 42 43 44 44 45 45 45 46 47 48 49 50 49 48 47 45 42 39 35 34 34 35 35 33 30 28 28 28 26 24 23 23 25 27 27 26 27 27 29 30 31 30 31 31 32 32 31 29 26 25 25 26 27 29 32 36 40 44 47 49 50 51 51 51 51 51 50 48 47 44
30 29 29 29 29 30 31 34 36 37 38 39 40 40 41 42 42 43 43 44 44 45 47 49 50 50 49 48 46 44 42 39 36 34 34 33 33 33 30 28 27 26 26 24 24 26 27 28 28 27 27 28 30 31 32 31 30 30 31 31 31 30 27 25 25 26 28 30 33 37 41 45 49 51 53 54 54 52 51 50 49 48 46 43 42
31 29 29 29 29 29 31 33 35 36 37 39 41 42 43 43 43 43 44 45 46 48 49 50 49 49 47 45 44 42 39 37 35 35 34 32 32 31 30 29 28 27 27 27 27 30 30 30 29 29 30 31 32 32 30 30 30 30 31 32 31 28 26 26 28 29 32 35 38 41 45 49 53 55 56 57 56 54 50 48 47 45 43 42 41
32 31 30 30 30 30 31 32 34 36 38 40 43 45 46 45 45 45 46 47 48 49 49 49 48 47 46 44 42 40 38 36 36 35 33 32 31 31 31 31 30 30 30 30 30 31 32 31 30 30 31 31 30 29 29 30 31 31 32 32 29 28 28 29 31 33 36 38 42 45 48 52 55 57 59 59 58 54 49 46 45 43 42 41 40
34 33 32 31 30 31 31 32 34 35 37 39 43 46 47 47 46 46 47 47 48 49 49 49 48 46 45 43 40 39 37 36 35 35 33 32 32 32 32 32 32 33 33 33 32 31 31 31 30 31 30 29 28 29 30 31 32 32 33 31 29 29 31 32 34 37 39 42 45 48 51 54 57 60 61 60 59 55 50 46 44 42 40 39 39
35 34 33 32 31 31 30 31 32 34 35 37 39 41 43 45 45 46 47 48 49 48 48 46 45 43 42 41 40 38 37 36 36 35 34 33 34 34 34 33 33 34 35 34 32 31 31 30 30 29 29 29 29 31 31 32 33 33 32 30 30 32 34 36 38 40 43 45 48 51 54 56 60 63 63 62 60 58 53 48 44 41 40 39 38
35 35 34 33 32 30 30 30 31 32 33 34 35 37 39 42 44 45 46 46 45 43 42 41 41 41 40 40 40 39 38 37 36 35 34 34 34 34 34 34 34 33 34 34 32 31 31 30 30 29 29 30 31 31 33 34 33 32 31 31 33 35 37 39 42 44 47 49 52 54 56 59 63 66 66 64 63 62 57 51 47 44 42 41 40
34 33 33 33 32 31 29 29 30 31 31 32 34 35 37 39 40 41 40 39 38 37 37 37 37 38 38 39 39 38 37 36 36 36 35 34 34 34 35 35 34 33 33 33 32 31 31 31 30 30 30 31 32 33 34 34 33 33 33 34 35 38 40 43 45 48 51 54 56 58 60 62 65 68 68 67 67 66 62 57 52 49 47 47 48
32 32 33 33 33 31 29 29 30 31 31 32 33 34 35 35 34 34 33 32 31 31 31 32 33 35 36 36 36 35 34 34 35 35 35 35 35 35 36 35 34 32 30 30 30 30 30 30 31 31 32 33 35 36 35 34 34 35 36 37 39 41 44 46 49 52 55 58 60 62 63 65 68 70 71 70 71 70 68 64 59 55 54 55 56
32 32 32 33 33 31 30 30 31 32 32 32 32 31 30 28 27 27 27 27 27 27 28 29 30 32 32 32 32 31 30 30 31 32 32 32 32 33 34 34 32 30 28 27 29 30 30 31 32 33 34 36 36 36 35 35 36 36 37 39 42 44 47 50 53 56 59 62 64 65 66 68 70 73 74 75 75 74 73 70 66 62 60 61 62
32 32 32 33 32 31 31 31 30 30 30 29 28 26 24 22 22 23 24 26 27 28 29 29 30 30 29 29 28 26 25 25 26 26 26 27 27 27 29 29 28 27 27 28 30 32 33 34 35 36 37 37 36 35 37 38 39 38 39 41 44 46 49 52 55 58 61 64 66 69 70 71 73 75 77 79 79 78 77 75 72 69 67 67 67
33 33 32 31 30 30 30 29 28 26 25 24 22 21 21 21 21 23 24 26 28 29 30 30 30 30 29 28 26 25 24 25 25 25 24 25 25 25 26 27 28 29 29 30 32 34 36 38 38 38 39 38 37 37 39 41 40 40 42 44 46 48 51 54 57 60 63 66 68 70 72 73 75 78 80 82 83 81 80 78 77 75 73 72 71
36 34 32 29 27 28 27 25 24 22 21 21 20 20 21 22 23 25 26 27 28 28 28 28 29 29 28 27 25 25 25 26 27 27 27 27 27 27 28 29 31 31 31 31 32 35 38 41 42 42 40 39 39 40 42 42 42 43 45 47 49 51 53 57 60 64 66 69 71 73 74 75 77 79 82 84 85 83 82 80 80 79 77 75 74
37 36 34 30 27 27 26 24 24 23 23 22 21 21 22 23 25 26 27 28 27 26 26 27 28 28 27 26 25 25 26 27 27 28 29 30 30 31 31 32 32 33 33 34 36 38 40 42 43 43 42 41 42 43 43 44 45 46 47 49 52 54 56 60 63 67 69 72 73 76 77 78 79 81 83 86 87 85 83 82 82 81 79 78 77
38 36 35 32 30 28 27 26 26 26 25 24 23 23 24 24 26 27 28 28 28 28 27 26 27 28 27 27 26 25 24 25 27 29 30 31 33 33 33 34 35 36 39 41 43 43 42 42 42 43 43 43 44 44 44 46 47 49 50 52 55 57 60 63 67 70 73 75 77 79 81 82 83 85 88 90 91 89 88 87 85 83 81 79 79
39 38 37 36 34 32 31 30 29 28 28 28 27 27 26 26 28 29 29 30 31 31 30 29 30 30 30 29 28 26 25 26 28 30 30 32 34 36 37 38 39 41 44 46 46 45 44 43 43 44 44 44 44 45 46 48 50 52 53 55 57 60 63 66 69 72 75 78 80 81 82 84 86 88 90 92 93 93 91 89 87 84 81 80 81
41 41 41 41 39 37 35 34 33 32 33 33 32 31 31 30 30 30 31 32 33 34 33 33 33 32 32 31 30 30 29 29 30 31 31 31 33 35 37 39 41 43 44 45 44 43 43 43 44 44 44 45 46 48 49 51 52 54 56 58 60 63 66 68 70 73 76 78 80 80 81 84 87 88 90 92 92 92 91 90 88 85 83 83 83
41 39 40 42 43 41 38 36 36 36 37 38 38 37 36 35 33 33 34 35 36 37 37 36 36 36 36 35 35 34 34 33 33 34 34 34 33 34 36 38 40 42 42 43 43 43 43 43 44 45 47 48 50 51 52 54 55 57 59 61 64 66 68 70 73 75 78 80 81 81 81 85 88 89 90 92 93 92 92 92 90 88 88 88 87
43 39 39 42 44 42 40 38 38 38 39 41 42 41 40 39 37 36 36 37 38 39 40 40 40 40 41 40 40 39 38 38 38 38 38 38 37 37 38 39 40 41 42 43 43 44 44 45 46 47 49 51 52 54 55 57 58 60 63 65 68 70 71 73 76 78 81 82 84 84 85 88 91 92 92 94 95 95 95 95 94 94 94 92 90
48 44 44 45 44 42 41 42 42 41 42 44 45 46 46 44 42 41 40 41 42 42 42 43 43 43 44 44 44 44 43 43 42 42 42 41 42 42 42 43 44 44 44 45 46 46 47 48 49 50 52 54 55 57 59 60 62 64 66 69 71 73 74 76 79 81 83 86 88 90 90 91 95 96 96 97 98 97 97 98 98 98 97 94 92
50 48 48 49 48 44 43 44 46 47 47 48 49 50 52 52 50 48 46 46 46 46 45 45 46 46 47 47 48 48 49 48 46 45 45 45 45 46 46 47 47 48 48 48 48 48 49 51 52 54 55 57 59 61 63 65 66 68 71 73 75 76 78 79 81 83 85 88 92 96 96 96 98 100 100 100 101 100 100 101 101 101 99 97 94
55 52 52 53 53 51 49 49 51 52 52 53 53 53 54 56 56 54 52 51 50 48 48 47 48 49 50 51 52 52 52 51 50 49 48 48 49 49 49 50 50 50 50 51 51 51 52 53 55 57 59 61 63 65 67 69 71 73 75 76 78 80 81 82 83 84 86 89 95 100 101 100 102 104 104 104 104 103 102 103 103 102 101 99 96
59 58 57 57 58 59 59 58 59 59 58 57 56 55 56 58 59 58 57 55 53 51 50 50 50 52 53 54 55 55 55 54 53 52 51 51 52 52 52 52 53 53 54 54 54 54 55 56 58 60 62 64 66 69 71 74 75 77 78 80 82 83 84 85 86 87 89 92 98 104 105 105 106 108 108 108 107 105 104 105 104 104 103 101 100
Wind_Direction
287 288 290 291 287 282 281 282 282 282 282 280 277 275 275 280 284 284 284 282 277 274 276 283 296 305 309 312 314 316 317 315 314 316 320 329 334 334 336 340 342 346 350 351 350 348 348 349 346 335 320 307 301 305 305 300 296 295 298 307 316 322 322 325 329 327 322 312 300 301 309 312 309 306 307 310 313 313 312 313 314 317 318 315 309
285 284 286 287 283 280 281 282 281 280 280 279 277 275 276 279 282 284 282 278 274 273 275 283 295 304 308 310 311 314 316 314 315 316 319 326 329 330 333 338 341 345 347 348 348 346 344 345 346 339 324 308 301 302 302 298 292 292 296 303 311 316 316 316 320 322 319 313 304 297 299 302 305 305 304 306 308 309 308 307 306 308 311 314 315
283 281 283 284 283 281 281 282 280 280 280 280 277 275 276 279 281 282 279 275 274 275 277 283 294 301 306 308 309 311 313 312 314 315 317 321 323 322 329 337 340 342 344 344 345 344 340 338 340 338 328 314 303 295 289 290 289 290 293 300 307 310 311 310 310 311 309 306 302 297 296 297 298 300 303 306 308 306 304 303 303 305 306 308 311
278 278 280 281 281 281 281 281 280 280 281 280 278 277 278 279 281 279 275 273 275 277 278 282 290 297 302 305 306 308 310 310 312 314 315 317 315 316 327 336 337 338 341 341 341 340 336 333 334 334 329 319 307 293 282 281 285 287 293 300 306 307 308 309 306 304 302 301 300 296 295 295 292 292 298 304 305 302 300 298 299 303 305 306 309
274 277 279 280 280 280 281 281 279 279 281 281 280 280 280 279 278 274 271 272 274 276 278 280 285 292 298 302 303 307 308 308 311 312 312 311 309 314 325 332 333 335 337 338 338 336 332 329 329 329 327 320 307 298 290 289 290 291 297 304 307 307 308 309 308 306 303 302 301 299 295 291 286 284 290 300 300 297 295 294 295 299 302 305 307
271 274 279 280 280 280 280 279 279 279 280 281 280 279 278 277 273 270 270 272 274 276 278 279 283 291 297 300 302 305 305 307 309 310 309 305 306 314 323 327 328 331 334 335 335 333 328 325 326 326 325 319 310 304 300 298 299 298 302 306 306 306 307 308 307 306 304 301 299 298 294 287 281 278 284 292 293 291 292 292 292 295 299 302 305
269 271 275 279 281 281 279 278 278 279 279 279 278 276 275 274 272 271 271 271 273 275 276 278 284 292 298 299 301 302 302 304 306 306 306 303 306 314 318 321 324 328 330 330 331 329 324 322 323 323 323 319 313 309 305 302 301 301 302 302 302 303 304 306 306 306 305 302 299 295 291 285 279 278 281 287 289 290 292 292 291 293 297 299 302
270 270 272 277 280 278 276 276 277 279 280 279 276 274 272 273 274 273 271 271 272 274 276 281 287 294 298 298 298 299 298 300 300 299 303 304 308 314 314 316 321 324 326 326 325 324 321 319 320 320 320 318 313 308 305 302 300 300 299 299 300 301 303 305 306 306 306 304 300 296 290 285 282 281 282 286 290 292 293 292 291 292 295 297 300
274 274 272 274 275 274 274 275 278 280 280 278 274 272 271 273 274 272 271 272 274 276 280 286 291 295 297 296 296 295 294 296 295 296 301 305 307 310 310 312 316 318 320 321 320 318 317 317 317 318 317 315 312 308 305 304 303 302 302 303 303 304 304 305 306 306 306 303 300 296 292 289 287 286 286 288 291 293 293 292 291 293 295 296 298
276 275 271 270 269 270 272 275 278 280 280 277 275 273 272 273 273 272 273 274 277 280 284 289 293 296 296 294 293 290 290 294 295 296 300 301 302 304 305 308 310 311 313 315 315 313 313 314 314 314 313 310 309 308 305 303 303 303 305 306 306 306 306 306 307 307 305 303 300 295 292 291 291 290 290 291 292 292 291 291 291 293 294 295 297
274 270 265 265 269 272 273 276 277 278 279 278 274 271 269 271 272 273 275 276 279 282 286 290 294 295 295 293 292 289 289 292 294 295 294 294 296 298 299 302 304 307 309 311 311 309 308 310 309 309 309 308 306 306 302 299 300 302 305 307 307 307 308 309 309 309 307 304 301 297 295 294 294 294 293 293 292 291 291 291 292 293 295 296 297
271 265 261 262 268 274 275 274 275 274 277 276 273 273 274 277 278 278 278 277 279 282 286 291 292 291 291 290 289 288 287 289 291 290 288 288 291 294 296 299 301 305 308 309 307 304 303 304 303 302 306 306 302 301 300 299 300 302 306 308 308 309 310 311 311 310 309 306 303 300 298 297 296 295 295 294 293 292 293 293 294 296 296 297 297
266 261 262 265 267 271 272 272 273 273 274 273 270 274 279 280 279 279 279 278 279 283 287 289 288 287 287 286 285 284 283 285 285 283 282 285 288 292 294 296 300 304 307 307 302 298 298 299 296 297 302 303 299 298 298 299 300 302 306 308 309 310 311 313 313 312 311 308 306 303 301 299 298 297 296 295 295 296 296 297 298 298 299 298 297
260 258 262 267 270 271 272 272 272 272 273 271 266 265 269 270 271 273 275 276 277 282 287 287 286 285 285 283 283 281 280 280 278 275 277 281 284 287 290 295 300 304 305 303 299 295 294 294 293 296 301 300 297 296 296 296 298 302 306 307 309 312 314 315 315 314 313 312 310 308 305 303 300 299 298 298 298 299 299 299 299 300 300 299 297
256 259 261 263 267 271 273 274 273 271 270 268 262 258 259 262 265 268 270 273 275 279 283 284 284 285 284 283 283 281 278 275 272 272 274 278 281 285 290 297 301 302 301 299 297 294 293 293 295 299 301 299 297 294 293 294 297 301 304 306 310 313 314 314 314 314 313 312 312 312 310 306 303 302 301 302 302 302 302 301 301 301 301 300 298
260 262 262 261 262 266 270 271 271 270 269 266 262 260 258 257 260 264 267 270 274 278 280 280 282 284 284 283 283 281 276 271 270 272 274 277 281 287 294 299 300 298 297 296 294 292 292 294 297 299 300 299 296 292 292 293 296 299 301 306 311 312 312 311 311 311 312 313 315 316 314 311 308 306 306 305 305 305 304 303 302 302 301 300 299
266 263 262 262 261 262 266 267 267 269 268 265 263 263 263 261 263 265 267 269 273 277 278 277 280 282 284 283 282 280 276 271 271 272 275 279 284 289 295 298 296 295 294 293 291 290 289 291 293 296 298 297 293 289 291 294 296 298 301 306 310 310 309 309 310 311 312 315 318 319 318 316 314 312 311 309 308 307 306 304 303 302 302 301 300
271 265 260 261 261 262 263 263 265 266 265 263 262 264 265 264 265 265 267 270 273 276 277 278 280 281 282 282 282 281 278 274 274 276 279 283 287 291 295 296 294 294 293 292 291 291 290 291 292 294 295 294 290 289 291 294 295 297 301 306 309 308 308 309 311 312 314 317 320 320 319 318 317 316 314 312 310 308 307 306 305 304 303 302 302
278 271 264 260 260 261 260 260 261 262 262 261 261 263 264 264 265 266 267 269 271 273 275 276 278 279 280 281 282 282 279 276 277 279 282 285 289 293 295 294 293 291 289 290 293 294 293 294 294 294 294 292 291 291 293 292 292 296 302 305 306 307 308 310 311 312 316 319 321 321 320 319 318 317 315 313 311 309 307 306 305 305 304 303 303
282 277 270 264 260 259 259 260 261 261 262 262 262 262 264 266 269 270 269 269 271 273 273 274 275 277 279 280 281 280 277 276 278 280 284 289 293 295 295 293 291 287 284 287 290 292 294 295 295 294 293 292 292 292 290 288 289 295 300 303 305 307 308 309 311 313 317 320 321 321 320 319 317 315 313 311 309 307 305 304 303 303 302 301 301
283 277 271 266 262 259 259 261 262 263 263 264 265 264 264 266 269 271 271 271 274 275 275 276 277 279 280 279 278 275 273 274 277 281 287 292 295 296 294 291 288 284 282 283 284 286 291 292 291 291 289 289 289 287 284 284 288 294 299 302 304 306 307 309 312 314 317 319 319 319 318 316 313 311 308 305 303 301 299 298 297 297 297 297 297
285 277 270 266 264 262 260 260 262 262 261 262 264 265 266 267 268 270 270 271 274 275 277 279 280 280 278 277 275 273 274 277 280 285 290 293 295 295 292 288 284 282 281 281 280 282 286 287 287 287 287 288 287 285 284 286 290 295 299 302 304 305 307 310 312 313 315 317 317 316 314 311 308 305 302 299 297 295 294 294 294 294 296 296 296
285 279 271 265 263 263 261 260 260 260 260 261 262 263 265 266 267 269 270 272 274 275 276 277 277 276 274 274 275 276 279 283 287 290 292 293 293 292 288 284 282 280 279 279 278 278 281 285 288 289 290 290 289 287 287 290 294 297 300 302 304 305 307 308 309 311 313 315 314 312 308 305 301 299 297 296 295 295 295 296 296 296 297 298 298
282 279 271 264 261 260 259 257 257 258 259 261 262 262 263 265 266 268 270 272 273 273 273 274 273 274 275 278 280 282 285 288 291 292 292 292 291 289 284 281 279 278 278 278 278 277 280 286 289 290 291 291 289 289 290 292 295 298 300 302 303 304 305 306 307 309 311 312 308 303 300 298 297 297 297 298 299 299 300 300 300 300 301 301 301
280 278 271 264 261 259 257 256 256 256 258 260 260 260 262 264 266 268 270 272 273 273 272 273 274 276 279 282 284 286 289 290 291 291 291 290 288 285 281 279 277 275 275 276 278 280 283 287 289 290 291 290 289 289 291 293 296 298 299 300 301 302 304 305 307 308 309 307 302 298 298 298 300 301 303 304 304 304 304 303 303 303 303 303 303
279 277 272 267 263 260 258 257 256 256 257 258 259 259 260 263 266 268 270 271 271 271 272 273 275 278 282 284 287 289 290 290 290 290 290 288 285 281 278 277 275 274 275 277 280 283 285 288 289 289 289 288 289 291 293 294 295 294 295 297 301 303 305 307 309 310 309 306 303 301 302 303 305 306 307 307 307 306 305 305 304 303 303 303 303
278 275 270 264 260 258 257 257 257 258 258 259 259 261 262 264 266 267 268 269 270 271 272 274 277 280 283 286 288 290 290 290 290 290 288 285 282 279 277 276 275 276 277 279 281 283 285 285 282 282 285 288 291 292 291 289 289 291 294 299 303 305 308 310 311 311 309 307 306 306 307 308 309 310 311 311 311 311 311 309 308 307 306 305 304
278 275 266 259 257 257 255 254 256 257 258 259 260 262 263 265 266 267 268 270 271 272 274 276 279 282 284 286 288 289 289 288 288 287 285 283 280 278 278 276 274 275 276 278 280 278 275 272 274 280 285 288 289 286 284 285 288 293 298 303 306 307 309 310 311 310 308 308 308 310 313 315 318 319 320 320 318 317 316 315 313 312 310 308 306
280 277 270 264 261 259 256 254 255 255 256 260 262 263 263 264 265 267 268 270 271 274 277 279 282 284 286 287 287 287 286 286 285 284 284 283 280 278 277 274 271 272 274 276 273 268 266 269 276 282 284 283 282 282 285 288 292 297 302 306 307 307 307 307 307 307 307 309 313 317 322 325 328 329 328 326 323 321 319 318 316 313 311 309 307
285 281 276 271 265 260 257 256 255 254 254 257 260 261 261 262 263 264 266 268 271 275 279 282 284 285 286 286 285 284 283 283 282 282 283 283 279 276 273 269 268 269 270 269 265 264 267 273 277 279 278 278 280 284 287 291 295 299 304 306 305 303 302 301 302 306 310 315 320 324 329 332 333 332 331 329 327 324 321 319 316 313 311 309 306
289 285 279 274 267 261 257 256 255 254 252 253 255 258 258 259 261 263 267 270 274 278 280 282 283 284 284 283 282 280 280 280 280 280 281 280 276 272 268 265 264 264 264 262 261 263 268 272 274 274 275 278 282 284 287 291 296 299 303 305 302 299 298 299 304 310 316 321 325 329 332 333 334 333 332 331 329 326 323 319 316 314 313 311 308
291 287 282 276 269 263 259 258 257 256 255 253 253 255 257 259 262 267 272 275 277 279 280 282 282 282 281 280 278 277 277 278 278 278 278 276 272 269 265 262 260 260 261 261 262 264 267 270 271 273 277 280 281 283 287 291 294 297 301 301 297 296 300 305 311 316 321 325 329 331 332 333 334 333 333 332 332 329 324 320 318 317 316 316 314
291 288 283 277 270 266 263 260 257 257 256 255 254 255 258 262 266 270 274 276 278 279 280 280 280 279 278 276 275 275 275 275 275 275 275 272 269 268 266 264 261 259 260 262 265 267 268 269 272 275 277 277 279 282 286 288 291 295 298 296 294 299 307 313 317 321 325 328 330 331 331 332 333 333 333 333 333 330 325 320 320 321 320 320 319
287 286 283 278 271 267 264 261 259 258 257 256 256 257 260 265 269 271 273 275 277 278 278 279 278 277 275 274 273 273 273 272 271 271 270 269 269 269 267 265 263 262 262 264 267 269 270 272 273 274 274 275 279 283 285 287 290 293 294 293 297 306 314 319 323 325 327 329 330 330 331 331 332 332 332 332 333 332 327 322 322 323 323 322 322
282 283 282 278 272 266 264 263 261 261 261 261 261 262 264 267 270 272 273 274 276 276 277 277 277 275 274 272 272 272 271 270 268 267 267 267 268 268 266 265 265 265 265 266 268 269 270 271 271 271 273 277 280 282 284 287 290 290 291 294 303 312 319 323 325 327 328 329 329 329 330 331 331 331 332 332 333 332 329 324 323 324 325 325 325
279 280 280 277 273 269 266 265 265 264 264 264 264 265 267 270 273 274 275 275 276 277 278 277 276 275 273 272 271 270 269 267 266 265 265 265 265 264 264 266 267 267 267 267 268 267 268 269 270 272 275 278 280 282 285 287 287 288 293 300 310 317 321 324 326 327 328 328 328 328 329 329 330 330 331 332 332 332 331 327 325 326 327 327 327
279 279 278 276 274 272 270 268 266 264 263 262 263 266 269 273 275 276 277 278 279 280 282 281 280 277 275 272 270 269 267 264 263 262 263 262 262 263 264 265 266 266 266 267 267 266 268 270 273 274 275 277 280 282 283 283 285 291 299 308 315 319 322 324 326 327 327 326 326 327 327 328 328 329 329 331 332 331 330 329 328 328 328 328 328
281 278 275 274 274 273 270 267 264 263 262 263 265 268 271 273 275 277 279 282 284 285 286 285 283 280 276 272 269 267 264 262 261 261 261 260 261 262 263 264 264 263 263 266 269 270 271 272 274 275 276 277 279 280 281 283 288 296 305 311 316 319 321 322 323 324 324 324 324 325 326 326 327 327 328 330 331 331 330 329 329 329 329 329 328
282 277 274 272 273 271 268 265 264 264 264 265 266 268 269 270 273 278 282 285 287 288 287 285 282 279 275 271 269 265 261 259 260 260 260 259 259 258 260 261 261 261 263 266 271 274 275 274 273 274 275 277 277 278 282 289 295 302 307 311 314 318 319 318 319 320 321 322 323 323 324 325 325 326 327 328 329 329 329 329 329 329 329 329 327
282 277 274 271 269 267 265 265 264 263 262 262 264 266 268 272 275 279 284 287 289 289 286 283 279 275 272 269 265 261 258 257 258 258 257 256 255 253 254 256 259 262 265 268 272 275 277 277 275 275 276 277 277 279 286 294 300 305 308 309 312 315 315 314 314 315 318 320 321 321 321 322 323 324 325 326 327 328 328 328 328 328 328 328 326
282 277 273 270 267 265 264 262 261 259 258 258 261 264 270 275 280 284 287 290 291 289 284 279 274 271 268 265 262 261 262 263 263 262 260 259 257 254 253 255 260 263 267 271 276 279 279 278 278 278 278 278 280 285 291 297 302 305 306 307 309 311 312 310 310 311 314 317 318 319 319 320 321 322 323 324 325 326 327 327 327 327 327 326 325
280 277 273 269 266 265 263 261 259 258 257 257 260 264 271 277 282 286 290 292 291 288 282 276 271 267 265 263 264 266 269 270 269 268 266 264 262 259 257 258 260 264 269 276 281 283 282 280 279 280 281 282 285 291 297 301 303 304 305 306 307 308 309 308 307 309 312 314 316 317 317 319 320 321 323 323 324 325 327 327 327 326 325 324 323
274 276 274 270 266 265 263 261 260 259 257 258 261 266 270 275 279 284 287 288 288 285 281 276 270 268 268 268 270 271 271 271 272 272 271 269 267 265 263 262 264 267 274 279 283 284 283 281 279 281 283 286 290 296 300 302 303 303 304 304 305 306 306 306 306 308 309 311 313 315 316 317 319 320 322 322 322 324 325 325 325 324 323 322 321
265 270 272 271 268 265 263 261 261 260 256 257 262 266 269 272 276 278 280 280 281 281 280 276 272 271 271 271 271 270 269 271 275 277 275 272 270 268 267 267 268 270 275 279 281 283 283 282 281 283 285 290 295 299 301 302 302 303 303 302 302 303 303 303 304 305 306 308 311 313 314 315 316 318 320 320 320 322 323 323 322 321 321 320 318
260 264 267 268 268 266 264 263 262 260 257 258 261 265 270 273 274 273 273 274 275 278 278 277 274 272 271 271 271 270 271 273 277 281 281 279 276 273 271 271 271 273 275 278 279 281 282 283 285 288 291 295 298 299 300 300 300 300 299 299 299 300 300 301 302 302 303 306 308 312 313 313 314 317 318 318 319 320 321 320 320 319 318 317 316
258 259 261 263 265 266 266 264 262 260 259 259 261 264 269 273 274 271 269 270 272 274 276 277 275 273 273 274 273 273 274 277 279 282 284 284 283 282 280 278 278 277 278 279 279 279 281 285 289 293 294 295 296 297 297 296 296 296 296 297 298 298 299 301 301 302 304 306 309 313 314 313 314 317 318 317 318 320 320 320 319 318 318 317 316
256 258 257 258 261 264 265 264 263 263 262 262 263 265 267 270 272 270 269 271 272 274 275 275 275 274 274 276 276 275 277 279 281 283 285 286 287 287 286 285 285 283 281 281 281 283 287 291 294 295 295 295 295 295 295 295 296 296 296 297 297 299 300 302 303 304 306 308 311 314 315 315 316 317 318 318 319 321 321 319 318 317 318 317 315
255 256 256 258 261 263 262 260 261 264 265 265 266 267 267 268 270 270 271 273 274 274 274 273 273 274 275 278 278 278 279 282 285 286 286 287 287 287 288 288 288 288 287 287 288 290 292 293 293 294 294 295 295 296 296 297 297 297 297 297 298 300 301 302 304 305 307 308 310 312 314 316 316 317 318 319 319 320 320 318 317 316 316 316 314
254 253 255 258 261 263 262 261 261 263 266 268 268 268 267 267 269 271 273 275 275 274 273 272 272 273 276 279 280 281 282 284 286 287 286 286 286 286 287 289 290 291 292 292 292 291 291 290 291 292 293 294 295 296 296 296 296 297 298 298 299 300 302 303 304 306 307 308 309 310 313 315 316 316 318 319 319 320 319 317 315 315 315 315 313
253 253 255 257 258 260 262 264 264 265 268 269 269 268 267 267 268 270 273 274 275 274 272 272 273 274 276 278 281 282 283 284 286 286 286 285 286 287 288 290 291 292 293 292 291 290 290 290 291 292 293 294 295 294 295 295 296 297 298 299 300 301 302 303 304 306 307 307 307 308 312 315 316 317 318 318 318 318 317 315 314 314 314 313 311
254 254 256 257 258 259 261 263 265 267 268 269 268 266 264 264 265 268 271 273 274 273 272 272 273 274 276 279 280 282 283 284 285 285 285 285 286 288 289 290 291 292 292 292 291 291 291 292 293 294 294 295 295 295 296 297 298 299 299 300 301 301 303 304 305 307 308 307 307 309 313 315 316 316 317 316 316 316 315 314 313 314 314 312 311
Height
10770 10769 10769 10768 10767 10765 10764 10763 10762 10762 10763 10762 10761 10761 10761 10761 10761 10762 10762 10761 10761 10760 10758 10756 10754 10753 10754 10755 10755 10755 10754 10752 10750 10748 10746 10745 10744 10743 10741 10740 10739 10738 10736 10735 10734 10733 10732 10730 10728 10727 10726 10725 10725 10725 10724 10724 10724 10723 10722 10722 10721 10721 10720 10719 10718 10717 10717 10716 10715 10715 10714 10713 10712 10712 10711 10711 10711 10710 10710 10709 10709 10708 10708 10707 10706
10766 10765 10765 10764 10763 10762 10760 10760 10758 10758 10759 10759 10759 10758 10757 10758 10759 10760 10759 10757 10756 10756 10756 10756 10754 10751 10751 10752 10752 10753 10752 10750 10749 10746 10744 10743 10742 10741 10740 10738 10737 10736 10735 10734 10733 10732 10731 10729 10728 10727 10725 10725 10724 10723 10723 10723 10722 10721 10721 10720 10720 10719 10719 10718 10717 10716 10716 10715 10714 10713 10713 10712 10711 10710 10710 10709 10709 10708 10708 10707 10707 10706 10706 10705 10705
10762 10761 10761 10760 10760 10759 10757 10756 10755 10755 10756 10756 10756 10755 10754 10755 10757 10757 10755 10753 10753 10754 10755 10755 10753 10750 10749 10749 10749 10750 10750 10748 10746 10745 10743 10741 10740 10739 10738 10736 10735 10734 10733 10732 10731 10730 10730 10728 10727 10726 10725 10723 10723 10722 10722 10721 10721 10720 10719 10719 10718 10718 10717 10717 10716 10715 10714 10713 10713 10712 10711 10710 10710 10709 10708 10708 10707 10706 10706 10705 10705 10704 10704 10703 10702
10758 10757 10756 10755 10755 10755 10754 10753 10752 10752 10752 10752 10752 10752 10752 10753 10754 10753 10750 10749 10751 10752 10753 10753 10751 10749 10748 10747 10747 10747 10747 10746 10744 10743 10741 10740 10739 10737 10736 10734 10733 10731 10731 10730 10730 10729 10728 10727 10726 10725 10724 10722 10721 10721 10720 10720 10719 10718 10718 10717 10717 10716 10716 10715 10714 10713 10712 10712 10711 10710 10709 10709 10708 10707 10706 10706 10705 10704 10704 10703 10702 10702 10701 10700 10700
10754 10753 10752 10751 10751 10751 10751 10750 10748 10748 10749 10749 10749 10749 10749 10750 10751 10749 10746 10747 10749 10750 10751 10751 10749 10748 10747 10746 10745 10745 10744 10743 10742 10741 10739 10738 10737 10735 10734 10732 10731 10729 10729 10728 10728 10727 10726 10725 10724 10723 10722 10721 10720 10719 10718 10718 10717 10717 10716 10716 10715 10714 10714 10713 10713 10712 10711 10710 10709 10708 10707 10707 10706 10705 10704 10703 10703 10702 10701 10701 10700 10699 10699 10698 10697
10749 10749 10748 10747 10746 10747 10748 10746 10745 10745 10746 10746 10746 10746 10746 10746 10746 10744 10743 10745 10747 10748 10748 10748 10747 10746 10745 10744 10743 10743 10742 10740 10739 10738 10737 10736 10735 10733 10731 10730 10729 10728 10727 10726 10726 10725 10724 10723 10723 10721 10720 10719 10718 10717 10717 10716 10716 10715 10714 10714 10713 10713 10712 10712 10711 10710 10709 10708 10707 10706 10705 10704 10704 10703 10702 10701 10700 10699 10698 10698 10697 10697 10696 10695 10695
10745 10745 10744 10743 10742 10743 10743 10743 10741 10741 10743 10743 10743 10743 10742 10742 10742 10741 10741 10742 10744 10745 10745 10745 10745 10743 10742 10741 10741 10740 10739 10738 10737 10735 10734 10734 10732 10730 10729 10728 10727 10726 10725 10724 10724 10723 10722 10721 10721 10719 10718 10717 10716 10715 10715 10714 10714 10713 10713 10712 10711 10711 10710 10709 10709 10708 10707 10705 10704 10703 10702 10702 10701 10700 10699 10698 10697 10696 10696 10695 10695 10694 10693 10692 10692
10741 10741 10740 10740 10738 10738 10739 10739 10738 10737 10738 10740 10740 10739 10738 10738 10739 10739 10738 10739 10741 10741 10741 10742 10742 10740 10739 10739 10738 10738 10737 10735 10734 10733 10732 10731 10729 10727 10726 10725 10725 10724 10723 10723 10722 10722 10721 10720 10718 10717 10716 10715 10714 10713 10713 10712 10712 10711 10711 10710 10709 10708 10708 10707 10706 10705 10703 10702 10701 10700 10699 10699 10698 10697 10697 10696 10695 10694 10693 10692 10692 10691 10690 10689 10689
10736 10736 10736 10736 10734 10733 10734 10735 10734 10733 10733 10735 10736 10734 10734 10735 10737 10735 10734 10735 10737 10737 10737 10737 10737 10736 10736 10736 10735 10735 10734 10733 10731 10730 10729 10728 10726 10725 10724 10723 10722 10722 10722 10721 10720 10720 10719 10717 10716 10715 10714 10713 10712 10712 10711 10710 10709 10709 10708 10708 10707 10706 10705 10704 10703 10702 10700 10699 10698 10697 10697 10696 10695 10695 10694 10693 10692 10691 10690 10690 10689 10688 10687 10686 10685
10731 10732 10732 10731 10730 10729 10731 10733 10732 10730 10729 10730 10730 10729 10731 10733 10733 10731 10731 10732 10733 10733 10734 10733 10733 10732 10733 10732 10732 10732 10730 10729 10728 10726 10725 10724 10723 10722 10721 10721 10721 10720 10720 10719 10719 10717 10716 10715 10714 10712 10712 10711 10710 10709 10709 10708 10707 10706 10706 10705 10704 10703 10702 10701 10700 10699 10698 10696 10695 10695 10694 10693 10693 10692 10691 10690 10689 10688 10688 10687 10686 10685 10684 10683 10681
10727 10729 10729 10728 10725 10725 10728 10729 10729 10728 10726 10725 10724 10725 10728 10730 10730 10729 10728 10729 10729 10730 10730 10730 10729 10729 10729 10728 10728 10728 10726 10724 10723 10722 10721 10721 10720 10720 10719 10719 10718 10718 10718 10717 10716 10715 10714 10713 10712 10710 10709 10709 10708 10707 10706 10705 10704 10704 10703 10702 10701 10701 10700 10699 10698 10696 10695 10694 10693 10692 10691 10691 10690 10689 10688 10687 10686 10685 10684 10683 10682 10681 10680 10679 10677
10723 10724 10724 10724 10721 10721 10723 10725 10726 10725 10724 10721 10720 10720 10723 10725 10726 10726 10726 10725 10726 10727 10727 10727 10727 10726 10725 10725 10724 10724 10722 10720 10719 10719 10718 10718 10718 10717 10717 10716 10716 10716 10715 10714 10713 10712 10711 10710 10709 10708 10707 10706 10705 10704 10703 10702 10702 10701 10700 10700 10699 10698 10697 10696 10695 10694 10693 10692 10691 10690 10689 10688 10687 10686 10685 10684 10683 10682 10681 10680 10678 10677 10676 10675 10674
10720 10720 10719 10718 10718 10717 10719 10722 10722 10722 10722 10720 10717 10717 10719 10720 10721 10721 10722 10722 10723 10724 10724 10724 10724 10724 10723 10723 10722 10721 10719 10718 10718 10717 10717 10716 10716 10715 10714 10713 10713 10712 10712 10711 10710 10709 10708 10707 10707 10705 10704 10703 10702 10701 10700 10699 10699 10698 10698 10697 10697 10696 10695 10694 10693 10691 10690 10689 10688 10687 10686 10685 10684 10683 10682 10681 10679 10678 10677 10675 10674 10673 10672 10671 10670
10716 10716 10715 10714 10713 10713 10715 10717 10719 10719 10719 10718 10716 10716 10718 10719 10719 10718 10719 10719 10720 10720 10721 10721 10721 10721 10721 10721 10720 10719 10718 10717 10717 10717 10716 10714 10714 10713 10712 10711 10710 10709 10708 10707 10706 10706 10705 10704 10703 10702 10701 10700 10699 10698 10697 10697 10696 10696 10695 10695 10694 10693 10692 10691 10690 10689 10688 10687 10686 10685 10683 10682 10680 10679 10678 10677 10676 10675 10673 10672 10670 10669 10668 10667 10666
10712 10713 10713 10711 10710 10709 10710 10712 10714 10715 10715 10716 10715 10714 10716 10718 10717 10716 10716 10716 10717 10717 10718 10718 10718 10718 10718 10718 10718 10718 10717 10715 10715 10715 10713 10713 10712 10711 10709 10707 10705 10704 10704 10703 10702 10702 10701 10700 10700 10699 10698 10697 10696 10695 10695 10694 10694 10693 10692 10692 10691 10690 10689 10688 10687 10686 10685 10684 10683 10682 10680 10678 10677 10676 10674 10673 10672 10671 10669 10668 10667 10665 10664 10663 10662
10708 10708 10708 10708 10707 10707 10706 10707 10709 10710 10712 10712 10712 10711 10712 10714 10714 10713 10713 10714 10714 10715 10715 10715 10715 10715 10715 10715 10715 10715 10715 10713 10713 10712 10711 10710 10709 10708 10706 10704 10701 10700 10700 10699 10699 10698 10698 10697 10697 10696 10695 10694 10694 10693 10692 10691 10691 10690 10690 10689 10688 10687 10686 10685 10684 10683 10682 10681 10680 10678 10676 10675 10673 10672 10671 10669 10668 10667 10666 10664 10663 10662 10661 10659 10658
10703 10704 10704 10703 10703 10703 10703 10703 10705 10707 10709 10709 10709 10707 10708 10710 10710 10710 10710 10711 10711 10712 10712 10712 10712 10712 10712 10712 10712 10712 10712 10711 10710 10710 10709 10708 10707 10705 10703 10700 10698 10696 10695 10696 10696 10696 10695 10695 10694 10693 10692 10692 10691 10690 10690 10689 10688 10688 10687 10686 10685 10685 10684 10683 10681 10680 10679 10678 10676 10674 10672 10671 10669 10668 10667 10665 10664 10663 10662 10660 10659 10658 10656 10655 10654
10699 10700 10700 10700 10698 10698 10699 10699 10701 10704 10706 10706 10706 10704 10704 10706 10707 10707 10707 10707 10708 10708 10709 10709 10709 10709 10709 10709 10709 10710 10709 10708 10708 10707 10706 10705 10704 10702 10700 10697 10694 10691 10690 10690 10692 10692 10692 10692 10691 10690 10689 10689 10688 10688 10687 10686 10686 10685 10685 10684 10683 10682 10681 10679 10678 10677 10675 10674 10672 10670 10668 10667 10665 10664 10663 10661 10660 10659 10657 10656 10655 10653 10652 10651 10649
10694 10695 10696 10696 10695 10694 10694 10695 10697 10700 10702 10703 10702 10702 10702 10703 10704 10704 10704 10704 10704 10705 10705 10705 10705 10706 10706 10705 10705 10706 10706 10704 10704 10703 10702 10701 10700 10698 10695 10693 10690 10688 10687 10686 10687 10688 10688 10688 10687 10686 10686 10685 10685 10685 10684 10684 10683 10683 10682 10681 10680 10679 10677 10676 10674 10673 10672 10670 10668 10667 10665 10663 10662 10660 10659 10658 10656 10655 10653 10652 10651 10649 10648 10646 10645
10689 10690 10690 10690 10690 10690 10689 10690 10693 10695 10696 10697 10698 10699 10699 10700 10701 10701 10701 10701 10701 10702 10702 10701 10702 10702 10702 10701 10702 10702 10701 10700 10700 10699 10699 10697 10696 10694 10691 10688 10686 10685 10684 10684 10685 10685 10685 10684 10684 10683 10683 10682 10682 10682 10682 10681 10681 10680 10679 10678 10677 10676 10674 10673 10671 10670 10668 10667 10665 10663 10662 10660 10659 10657 10656 10654 10653 10651 10650 10648 10646 10645 10643 10642 10640
10684 10684 10684 10684 10684 10684 10685 10687 10689 10689 10689 10690 10692 10694 10694 10695 10696 10697 10697 10698 10698 10698 10698 10698 10698 10698 10698 10698 10698 10698 10697 10696 10696 10695 10694 10693 10692 10689 10686 10684 10682 10681 10681 10682 10682 10682 10682 10681 10681 10681 10680 10680 10680 10679 10679 10679 10678 10677 10676 10675 10674 10673 10671 10669 10668 10667 10665 10664 10662 10660 10659 10657 10656 10654 10653 10651 10649 10647 10646 10644 10642 10640 10639 10637 10635
10677 10677 10678 10678 10677 10678 10681 10684 10685 10684 10683 10684 10687 10689 10689 10690 10691 10692 10693 10693 10694 10694 10694 10694 10694 10694 10694 10694 10694 10695 10694 10693 10692 10691 10690 10688 10687 10685 10682 10680 10679 10677 10677 10678 10679 10679 10678 10678 10678 10678 10677 10677 10677 10676 10676 10676 10675 10674 10673 10672 10671 10669 10668 10666 10665 10663 10662 10661 10659 10657 10656 10654 10653 10651 10649 10647 10646 10644 10642 10640 10638 10636 10634 10632 10631
10671 10671 10671 10672 10672 10673 10676 10678 10679 10679 10678 10679 10683 10684 10685 10685 10686 10687 10687 10688 10689 10689 10689 10690 10690 10690 10690 10691 10691 10691 10691 10690 10688 10687 10684 10682 10681 10680 10678 10676 10675 10674 10673 10675 10676 10676 10675 10674 10675 10675 10674 10674 10673 10673 10673 10672 10671 10671 10670 10668 10667 10666 10665 10663 10662 10660 10658 10657 10656 10654 10652 10651 10649 10647 10645 10643 10642 10639 10637 10635 10633 10631 10629 10627 10625
10665 10665 10666 10667 10668 10669 10671 10672 10673 10673 10673 10675 10678 10680 10680 10680 10681 10682 10683 10684 10684 10685 10685 10686 10686 10686 10687 10687 10687 10686 10687 10686 10684 10682 10679 10678 10677 10676 10674 10672 10671 10670 10670 10671 10672 10672 10672 10671 10672 10672 10671 10671 10670 10670 10669 10669 10668 10667 10666 10665 10664 10663 10661 10660 10658 10657 10655 10653 10652 10651 10649 10647 10645 10644 10642 10640 10638 10635 10633 10630 10628 10625 10623 10621 10618
10659 10660 10661 10662 10663 10665 10666 10667 10668 10669 10669 10671 10673 10675 10675 10675 10676 10678 10679 10680 10680 10680 10681 10682 10682 10682 10682 10683 10682 10681 10681 10681 10679 10678 10675 10673 10672 10671 10670 10669 10668 10667 10666 10667 10669 10669 10668 10669 10668 10668 10668 10668 10667 10666 10666 10665 10664 10663 10662 10661 10660 10659 10658 10656 10655 10653 10651 10650 10649 10647 10646 10644 10643 10641 10639 10636 10634 10631 10628 10625 10622 10619 10617 10614 10612
10652 10654 10658 10658 10658 10659 10660 10661 10663 10664 10665 10666 10669 10670 10671 10671 10672 10674 10675 10676 10676 10676 10677 10677 10677 10678 10678 10678 10677 10676 10675 10675 10674 10673 10670 10668 10668 10667 10666 10665 10664 10664 10663 10664 10665 10665 10665 10665 10665 10665 10665 10664 10664 10663 10662 10661 10661 10660 10659 10658 10657 10656 10654 10653 10651 10650 10648 10647 10646 10644 10643 10642 10640 10638 10636 10633 10630 10627 10623 10620 10617 10614 10611 10608 10605
10647 10649 10654 10655 10653 10654 10655 10655 10657 10659 10659 10661 10664 10666 10667 10668 10669 10670 10671 10672 10672 10672 10672 10673 10673 10673 10673 10673 10672 10671 10670 10669 10668 10667 10666 10664 10664 10663 10662 10661 10660 10660 10660 10661 10662 10661 10661 10662 10662 10662 10662 10661 10660 10659 10659 10658 10658 10657 10656 10655 10653 10652 10650 10649 10648 10646 10645 10644 10643 10642 10641 10639 10637 10634 10631 10628 10625 10622 10618 10615 10611 10608 10605 10602 10599
10642 10644 10648 10650 10648 10649 10650 10651 10652 10653 10654 10656 10659 10661 10663 10664 10665 10665 10666 10667 10667 10667 10667 10668 10668 10668 10668 10668 10667 10665 10664 10663 10663 10662 10661 10660 10659 10658 10658 10658 10657 10657 10657 10658 10658 10658 10658 10659 10659 10659 10658 10657 10657 10656 10656 10655 10654 10654 10653 10651 10650 10648 10647 10646 10644 10643 10642 10641 10640 10639 10637 10635 10632 10629 10626 10623 10619 10616 10612 10609 10605 10602 10599 10595 10592
10638 10639 10641 10643 10643 10644 10645 10646 10648 10649 10650 10652 10654 10657 10658 10660 10661 10661 10662 10662 10662 10662 10662 10663 10663 10663 10663 10662 10661 10660 10659 10658 10657 10657 10657 10656 10655 10654 10654 10654 10654 10654 10654 10655 10655 10655 10655 10656 10655 10655 10654 10654 10653 10653 10652 10651 10651 10650 10649 10647 10646 10645 10643 10642 10641 10640 10639 10638 10636 10635 10633 10630 10627 10624 10621 10618 10614 10610 10607 10603 10600 10596 10593 10590 10587
10634 10634 10635 10637 10638 10639 10640 10642 10643 10645 10646 10648 10650 10651 10653 10655 10656 10656 10657 10657 10657 10658 10657 10658 10658 10658 10658 10657 10656 10655 10654 10653 10652 10653 10653 10652 10651 10650 10650 10650 10650 10651 10651 10652 10653 10652 10652 10652 10652 10651 10651 10650 10650 10649 10648 10648 10647 10646 10645 10644 10643 10641 10640 10639 10638 10637 10635 10634 10632 10630 10627 10625 10622 10619 10616 10612 10608 10605 10601 10598 10594 10591 10588 10585 10582
10630 10630 10631 10632 10633 10634 10636 10637 10638 10640 10643 10645 10646 10646 10647 10649 10651 10651 10651 10652 10652 10652 10652 10653 10653 10653 10652 10651 10650 10650 10649 10648 10648 10648 10648 10648 10648 10647 10647 10647 10647 10648 10648 10649 10650 10649 10648 10649 10648 10648 10647 10647 10646 10645 10644 10644 10643 10643 10642 10641 10639 10638 10637 10636 10634 10633 10631 10629 10627 10624 10622 10620 10617 10614 10611 10607 10603 10600 10596 10593 10590 10586 10583 10580 10577
10627 10627 10627 10628 10628 10629 10631 10633 10634 10635 10638 10641 10642 10642 10643 10644 10646 10646 10646 10646 10647 10647 10647 10647 10647 10647 10647 10646 10645 10645 10644 10644 10644 10644 10644 10644 10644 10644 10644 10644 10644 10644 10645 10646 10646 10646 10645 10645 10645 10644 10643 10642 10642 10641 10641 10640 10640 10639 10638 10637 10636 10635 10633 10632 10630 10628 10626 10624 10622 10619 10617 10615 10612 10609 10606 10603 10599 10595 10592 10589 10586 10582 10579 10575 10572
10623 10623 10624 10624 10625 10625 10627 10629 10629 10631 10633 10636 10638 10639 10639 10640 10641 10642 10641 10641 10641 10641 10641 10641 10641 10641 10641 10640 10640 10640 10640 10640 10639 10639 10640 10640 10640 10641 10640 10640 10641 10641 10641 10641 10642 10642 10641 10641 10641 10640 10639 10638 10638 10637 10637 10636 10636 10635 10635 10633 10632 10631 10629 10627 10626 10623 10621 10619 10617 10614 10612 10610 10607 10604 10601 10598 10594 10591 10588 10585 10582 10578 10574 10571 10568
10620 10620 10621 10622 10622 10622 10624 10625 10626 10626 10628 10630 10632 10635 10636 10636 10636 10637 10636 10636 10636 10636 10636 10636 10636 10636 10635 10635 10635 10635 10635 10635 10635 10635 10635 10636 10636 10636 10636 10636 10636 10637 10636 10637 10638 10639 10638 10637 10637 10636 10635 10634 10634 10633 10633 10632 10632 10631 10631 10629 10628 10626 10624 10622 10620 10618 10616 10614 10612 10609 10607 10604 10601 10598 10595 10593 10590 10586 10583 10580 10577 10574 10570 10567 10564
10617 10617 10618 10619 10619 10620 10620 10621 10621 10622 10623 10625 10627 10629 10631 10631 10631 10631 10631 10631 10631 10631 10631 10630 10630 10630 10630 10630 10630 10631 10631 10630 10630 10630 10631 10631 10631 10632 10631 10631 10632 10633 10632 10633 10634 10635 10634 10633 10632 10632 10631 10630 10630 10629 10629 10628 10628 10627 10626 10625 10623 10621 10619 10617 10615 10612 10610 10608 10606 10604 10602 10599 10596 10592 10590 10587 10584 10581 10578 10575 10572 10569 10565 10562 10559
10612 10613 10613 10614 10615 10616 10616 10617 10617 10618 10619 10620 10622 10624 10626 10627 10626 10625 10625 10625 10625 10625 10625 10625 10625 10625 10625 10625 10626 10627 10627 10626 10625 10626 10627 10627 10627 10627 10627 10627 10628 10629 10629 10628 10629 10630 10630 10629 10628 10628 10627 10626 10626 10625 10625 10624 10623 10622 10621 10619 10617 10615 10613 10611 10609 10606 10604 10602 10600 10598 10596 10593 10590 10586 10583 10581 10578 10575 10572 10570 10567 10563 10559 10556 10553
10607 10608 10608 10609 10610 10611 10612 10613 10613 10614 10615 10616 10618 10620 10621 10622 10622 10621 10620 10620 10620 10621 10621 10620 10620 10620 10621 10621 10622 10622 10623 10621 10621 10622 10623 10623 10623 10623 10622 10623 10624 10625 10625 10624 10624 10625 10625 10625 10624 10623 10623 10622 10621 10621 10620 10620 10619 10617 10615 10613 10611 10609 10607 10604 10602 10600 10598 10596 10594 10592 10590 10587 10584 10580 10577 10575 10572 10569 10566 10563 10560 10556 10553 10549 10546
10602 10603 10603 10604 10606 10608 10609 10610 10610 10611 10611 10612 10614 10616 10618 10619 10618 10617 10617 10616 10617 10617 10617 10617 10616 10616 10617 10617 10618 10618 10618 10617 10617 10617 10618 10619 10619 10619 10618 10619 10620 10621 10621 10620 10619 10620 10620 10621 10620 10619 10618 10618 10617 10616 10615 10615 10614 10613 10610 10607 10605 10603 10600 10597 10596 10594 10592 10590 10587 10585 10583 10581 10578 10573 10570 10568 10566 10563 10559 10555 10552 10549 10546 10542 10539
10598 10599 10600 10602 10603 10605 10606 10607 10607 10608 10608 10609 10610 10612 10614 10615 10615 10615 10614 10614 10614 10614 10614 10613 10613 10613 10613 10614 10614 10615 10614 10614 10614 10614 10615 10615 10616 10617 10616 10616 10616 10617 10618 10617 10616 10615 10614 10615 10616 10615 10614 10614 10614 10613 10611 10609 10608 10606 10604 10602 10600 10598 10595 10592 10590 10589 10587 10585 10582 10579 10576 10573 10571 10567 10563 10560 10557 10555 10552 10547 10543 10540 10538 10535 10531
10595 10596 10597 10599 10601 10602 10603 10603 10605 10606 10606 10606 10607 10608 10610 10611 10612 10612 10612 10611 10611 10611 10610 10610 10610 10610 10610 10611 10611 10611 10611 10611 10612 10612 10613 10613 10614 10615 10614 10613 10613 10613 10614 10614 10613 10612 10610 10609 10609 10610 10609 10609 10609 10609 10606 10604 10602 10600 10598 10596 10594 10592 10590 10586 10584 10583 10582 10580 10577 10574 10571 10567 10564 10560 10557 10553 10550 10547 10544 10540 10536 10532 10529 10526 10523
10592 10593 10595 10597 10599 10599 10600 10601 10602 10603 10604 10604 10605 10606 10607 10607 10607 10608 10608 10609 10609 10608 10608 10607 10607 10607 10608 10608 10609 10609 10609 10609 10610 10610 10610 10611 10611 10612 10612 10611 10609 10609 10610 10610 10610 10609 10607 10604 10603 10604 10604 10604 10604 10603 10601 10599 10597 10595 10593 10590 10588 10586 10584 10581 10578 10576 10575 10573 10571 10568 10565 10563 10560 10555 10552 10548 10543 10541 10538 10533 10528 10524 10520 10517 10514
10590 10590 10592 10594 10596 10597 10598 10599 10599 10600 10601 10602 10604 10605 10605 10604 10603 10603 10604 10604 10605 10605 10605 10605 10605 10605 10605 10606 10607 10608 10608 10607 10607 10607 10607 10607 10607 10608 10608 10608 10607 10606 10605 10605 10605 10605 10604 10601 10599 10598 10599 10599 10598 10596 10594 10592 10590 10588 10587 10584 10582 10580 10578 10575 10571 10569 10568 10566 10565 10562 10558 10555 10553 10550 10546 10541 10536 10534 10531 10526 10521 10517 10513 10509 10505
10587 10587 10589 10591 10593 10594 10595 10596 10597 10598 10599 10600 10601 10602 10603 10603 10602 10600 10600 10600 10600 10602 10603 10603 10602 10602 10603 10604 10605 10606 10606 10605 10604 10603 10603 10604 10604 10604 10604 10604 10604 10603 10601 10600 10599 10598 10598 10598 10596 10595 10594 10593 10592 10590 10587 10585 10582 10580 10579 10578 10575 10573 10572 10569 10565 10561 10558 10557 10556 10553 10547 10543 10540 10538 10534 10528 10523 10520 10517 10514 10511 10507 10504 10501 10497
10584 10584 10586 10588 10589 10590 10591 10592 10593 10595 10596 10597 10597 10598 10599 10600 10600 10599 10597 10596 10596 10597 10599 10599 10599 10599 10599 10601 10602 10602 10603 10603 10601 10600 10600 10600 10600 10600 10600 10600 10600 10599 10597 10595 10594 10592 10592 10591 10591 10590 10589 10587 10585 10583 10581 10579 10577 10575 10573 10571 10569 10567 10565 10563 10560 10556 10552 10550 10548 10546 10541 10535 10532 10529 10525 10518 10513 10509 10505 10501 10497 10495 10493 10490 10487
10580 10581 10583 10583 10585 10586 10587 10588 10589 10590 10592 10593 10594 10594 10595 10596 10597 10598 10596 10594 10593 10593 10594 10595 10595 10595 10596 10597 10597 10598 10598 10599 10598 10596 10595 10596 10596 10595 10595 10595 10594 10593 10592 10591 10590 10588 10587 10585 10584 10583 10581 10579 10578 10576 10574 10573 10571 10570 10568 10566 10565 10563 10561 10559 10557 10554 10550 10548 10545 10544 10541 10534 10529 10528 10524 10516 10511 10507 10502 10496 10491 10487 10484 10481 10477
10575 10577 10578 10578 10579 10582 10584 10584 10584 10585 10587 10588 10590 10591 10591 10592 10593 10594 10593 10591 10590 10589 10589 10590 10590 10591 10592 10592 10593 10593 10594 10594 10594 10592 10591 10591 10591 10590 10590 10589 10588 10588 10587 10586 10585 10584 10582 10580 10578 10576 10574 10572 10570 10569 10568 10566 10565 10564 10562 10561 10560 10559 10557 10555 10552 10549 10545 10542 10539 10538 10537 10531 10525 10524 10521 10513 10507 10505 10499 10492 10486 10481 10478 10475 10470
10571 10573 10573 10572 10573 10577 10580 10580 10580 10580 10582 10583 10585 10586 10587 10588 10589 10589 10588 10588 10587 10586 10585 10584 10585 10585 10586 10587 10588 10588 10588 10588 10588 10588 10587 10586 10585 10585 10584 10583 10582 10582 10581 10580 10578 10577 10575 10573 10571 10569 10568 10566 10564 10563 10561 10560 10559 10558 10556 10554 10552 10551 10550 10547 10544 10539 10535 10531 10527 10526 10528 10523 10516 10514 10512 10504 10498 10496 10490 10483 10477 10473 10470 10467 10462
10566 10569 10569 10567 10567 10571 10574 10575 10575 10576 10577 10578 10580 10581 10582 10583 10583 10584 10584 10583 10583 10582 10581 10580 10579 10579 10580 10581 10582 10582 10582 10582 10582 10582 10581 10581 10580 10579 10577 10576 10575 10574 10573 10572 10570 10569 10566 10564 10563 10561 10560 10558 10557 10555 10554 10552 10551 10550 10548 10546 10543 10541 10540 10538 10534 10529 10523 10517 10512 10511 10514 10513 10505 10501 10501 10495 10488 10485 10480 10473 10467 10463 10461 10460 10455
10560 10563 10563 10563 10564 10565 10567 10568 10569 10570 10572 10573 10575 10576 10576 10576 10577 10577 10578 10578 10578 10577 10577 10575 10574 10574 10574 10575 10575 10575 10575 10575 10575 10575 10574 10574 10573 10572 10571 10569 10568 10567 10566 10564 10562 10560 10558 10556 10554 10553 10551 10550 10548 10546 10545 10544 10543 10541 10539 10536 10533 10532 10531 10528 10525 10521 10514 10506 10499 10494 10498 10502 10495 10489 10487 10483 10477 10475 10471 10464 10458 10454 10451 10449 10446
10554 10557 10557 10558 10559 10560 10561 10562 10562 10563 10565 10567 10569 10571 10571 10570 10570 10570 10571 10572 10572 10572 10571 10570 10568 10567 10568 10569 10569 10568 10568 10568 10568 10567 10567 10566 10565 10565 10564 10562 10561 10560 10558 10556 10554 10552 10550 10548 10546 10544 10543 10541 10539 10537 10535 10534 10532 10531 10529 10526 10523 10521 10519 10517 10515 10513 10508 10500 10489 10481 10484 10487 10481 10474 10471 10469 10466 10467 10463 10457 10451 10447 10441 10438 10435
10548 10551 10551 10552 10553 10554 10555 10556 10555 10556 10558 10559 10562 10564 10564 10564 10563 10563 10564 10565 10566 10565 10565 10564 10562 10561 10560 10561 10561 10561 10561 10561 10560 10559 10559 10558 10557 10556 10555 10555 10553 10552 10550 10547 10545 10543 10541 10540 10538 10536 10534 10533 10530 10528 10525 10523 10521 10520 10518 10516 10513 10510 10507 10505 10502 10501 10499 10493 10482 10472 10470 10471 10466 10460 10455 10453 10454 10458 10456 10448 10442 10438 10432 10426 10421